Time[GMT],salinity[psu](10m),sigma_t[kg/m^3](10m),conductivity[msiemens/cm](10m),pressure[decibars](10m),temperature[C](10m)
2018-07-17 16:00,31.609,24.014,36.230,9.17,11.69
2018-08-10 23:20,31.886,23.862,38.225,9.74,13.61
2018-08-10 23:40,31.847,23.843,38.138,9.27,13.56
2018-08-11 00:00,31.832,23.791,38.299,9.64,13.75
2018-08-11 00:20,31.822,23.825,38.103,9.14,13.55
2018-08-11 00:40,31.827,23.829,38.109,9.44,13.55
2018-08-11 01:00,31.842,23.880,37.946,9.16,13.35
2018-08-11 01:20,31.926,24.028,37.656,9.68,12.92
2018-08-11 01:40,32.035,24.256,37.101,9.59,12.17
2018-08-11 02:00,32.036,24.256,37.103,9.32,12.17
2018-08-11 02:20,31.944,24.056,37.610,9.97,12.85
2018-08-11 02:40,32.031,24.185,37.418,10.03,12.53
2018-08-11 03:00,31.945,24.033,37.725,10.22,12.98
2018-08-11 03:20,31.893,23.917,38.009,10.27,13.36
2018-08-11 03:40,31.940,24.053,37.607,10.27,12.85
2018-08-11 04:00,31.965,24.102,37.493,10.18,12.70
2018-08-11 04:20,31.941,24.038,37.679,10.02,12.93
2018-08-11 04:40,31.962,24.082,37.574,9.35,12.79
2018-08-11 05:00,31.950,24.022,37.795,9.22,13.05
2018-08-11 05:20,31.887,23.875,38.171,9.04,13.55
2018-08-11 05:40,31.857,23.779,38.464,9.28,13.91
2018-08-11 06:00,31.849,23.771,38.465,9.22,13.92
2018-08-11 06:20,31.880,23.849,38.258,8.83,13.65
2018-08-11 06:40,31.852,23.781,38.430,9.60,13.88
2018-08-11 07:00,31.849,23.800,38.338,8.88,13.78
2018-08-11 07:20,31.844,23.778,38.412,9.13,13.86
2018-08-11 07:40,31.851,23.799,38.349,9.27,13.79
2018-08-11 08:00,31.850,23.796,38.357,9.28,13.80
2018-08-11 08:20,31.847,23.781,38.410,8.61,13.86
2018-08-11 08:40,31.871,23.852,38.204,9.66,13.60
2018-08-11 09:00,31.838,23.744,38.535,9.84,14.01
2018-08-11 09:20,31.829,23.723,38.586,9.93,14.08
2018-08-11 09:40,31.852,23.777,38.449,10.27,13.90
2018-08-11 10:00,31.852,23.794,38.374,10.25,13.81
2018-08-11 10:20,31.840,23.771,38.424,10.29,13.88
2018-08-11 10:40,31.822,23.714,38.591,10.22,14.09
2018-08-11 11:00,31.839,23.759,38.471,10.24,13.94
2018-08-11 11:20,31.882,23.880,38.130,9.96,13.51
2018-08-11 11:40,31.885,23.880,38.144,9.55,13.52
2018-08-11 12:00,31.875,23.880,38.094,9.20,13.47
2018-08-11 12:20,31.860,23.884,38.008,9.17,13.40
2018-08-11 12:40,31.880,23.889,38.081,9.56,13.45
2018-08-11 13:00,31.840,23.843,38.102,9.01,13.52
2018-08-11 13:20,31.843,23.872,37.985,9.29,13.39
2018-08-11 13:40,31.898,23.987,37.715,9.60,13.02
2018-08-11 14:00,31.893,23.916,38.013,9.65,13.36
2018-08-11 14:20,32.013,24.217,37.178,9.53,12.29
2018-08-11 14:40,32.019,24.228,37.157,9.52,12.26
2018-08-11 15:00,32.010,24.206,37.217,9.90,12.33
2018-08-11 15:20,31.971,24.103,37.518,9.77,12.72
2018-08-11 15:40,31.941,24.025,37.738,10.27,13.00
2018-08-11 16:00,31.974,24.119,37.455,10.31,12.64
2018-08-11 16:20,31.969,24.109,37.478,10.30,12.67
2018-08-11 16:40,31.917,23.968,37.887,10.25,13.19
2018-08-11 17:00,31.945,24.037,37.704,10.11,12.95
2018-08-11 17:20,31.924,23.974,37.895,9.32,13.19
2018-08-11 17:40,31.925,23.984,37.853,9.21,13.14
2018-08-11 18:00,31.872,23.812,38.387,8.63,13.80
2018-08-11 18:20,31.853,23.755,38.552,8.91,14.01
2018-08-11 18:40,31.858,23.788,38.428,8.98,13.87
2018-08-11 19:00,31.858,23.774,38.493,8.87,13.94
2018-08-11 19:20,31.854,23.777,38.458,9.61,13.90
2018-08-11 19:40,31.861,23.788,38.444,8.67,13.88
2018-08-11 20:00,31.853,23.756,38.544,9.08,14.00
2018-08-11 20:20,31.856,23.756,38.562,8.91,14.02
2018-08-11 20:40,31.888,23.838,38.346,9.46,13.74
2018-08-11 21:00,31.845,23.705,38.732,9.63,14.22
2018-08-11 21:20,31.849,23.729,38.651,9.51,14.12
2018-08-11 21:40,31.850,23.724,38.676,10.26,14.15
2018-08-11 22:00,31.885,23.819,38.412,10.26,13.82
2018-08-11 22:20,31.918,23.849,38.430,10.32,13.80
2018-08-11 22:40,31.823,23.706,38.634,10.30,14.14
2018-08-11 23:00,31.848,23.739,38.598,10.31,14.07
2018-08-11 23:20,31.870,23.770,38.562,10.20,14.00
2018-08-11 23:40,31.892,23.873,38.201,9.76,13.57
2018-08-12 00:00,31.873,23.860,38.178,9.30,13.57
2018-08-12 00:20,31.900,23.882,38.200,9.16,13.56
2018-08-12 00:40,31.824,23.827,38.102,9.10,13.54
2018-08-12 01:00,31.852,23.830,38.212,9.45,13.63
2018-08-12 01:20,31.877,23.868,38.158,9.41,13.54
2018-08-12 01:40,31.869,23.906,37.950,9.51,13.32
2018-08-12 02:00,31.934,24.021,37.726,8.92,12.99
2018-08-12 02:20,31.916,23.907,38.159,9.53,13.50
2018-08-12 02:40,32.063,24.291,37.066,9.57,12.10
2018-08-12 03:00,32.054,24.264,37.147,9.36,12.20
2018-08-12 03:20,31.946,24.000,37.875,9.85,13.15
2018-08-12 03:40,32.059,24.274,37.125,10.18,12.17
2018-08-12 04:00,31.946,24.046,37.664,10.31,12.91
2018-08-12 04:20,31.993,24.135,37.468,10.33,12.63
2018-08-12 04:40,31.981,24.115,37.507,10.31,12.69
2018-08-12 05:00,31.966,24.061,37.691,10.06,12.91
2018-08-12 05:20,31.968,24.076,37.627,9.92,12.84
2018-08-12 05:40,31.949,24.022,37.791,9.22,13.05
2018-08-12 06:00,31.956,24.030,37.785,9.13,13.03
2018-08-12 06:20,31.908,23.881,38.243,8.94,13.60
2018-08-12 06:40,31.877,23.806,38.436,9.13,13.85
2018-08-12 07:00,31.892,23.848,38.314,9.39,13.70
2018-08-12 07:20,31.885,23.828,38.377,9.48,13.78
2018-08-12 07:40,31.910,23.907,38.134,8.78,13.48
2018-08-12 08:00,31.878,23.830,38.331,9.60,13.73
2018-08-12 08:20,31.898,23.873,38.235,8.71,13.60
2018-08-12 08:40,31.881,23.832,38.338,9.05,13.74
2018-08-12 09:00,31.884,23.841,38.311,8.42,13.70
2018-08-12 09:20,31.872,23.800,38.438,9.16,13.86
2018-08-12 09:40,31.897,23.858,38.292,9.75,13.67
2018-08-12 10:00,31.864,23.797,38.416,9.41,13.85
2018-08-12 10:20,31.873,23.804,38.428,10.12,13.85
2018-08-12 10:40,31.858,23.762,38.544,10.24,14.00
2018-08-12 11:00,31.857,23.786,38.434,10.34,13.87
2018-08-12 11:20,31.921,23.869,38.354,10.32,13.71
2018-08-12 11:40,31.902,23.888,38.181,10.31,13.54
2018-08-12 12:00,31.882,23.821,38.391,10.22,13.80
2018-08-12 12:20,31.896,23.921,38.007,9.41,13.35
2018-08-12 12:40,31.858,23.865,38.088,9.47,13.49
2018-08-12 13:00,31.865,23.886,38.026,9.37,13.41
2018-08-12 13:20,31.849,23.862,38.059,9.08,13.47
2018-08-12 13:40,31.865,23.877,38.063,9.12,13.45
2018-08-12 14:00,31.870,23.905,37.963,9.27,13.33
2018-08-12 14:20,31.893,23.953,37.849,9.27,13.18
2018-08-12 14:40,31.912,24.010,37.674,9.37,12.96
2018-08-12 15:00,31.979,24.117,37.488,9.55,12.67
2018-08-12 15:20,32.038,24.238,37.196,9.40,12.28
2018-08-12 15:40,32.039,24.241,37.191,9.65,12.27
2018-08-12 16:00,32.033,24.223,37.243,10.04,12.34
2018-08-12 16:20,31.833,23.961,37.537,10.26,12.90
2018-08-12 16:40,31.998,24.161,37.371,10.34,12.52
2018-08-12 17:00,32.043,24.149,37.641,10.36,12.77
2018-08-12 17:20,31.952,24.068,37.593,10.31,12.82
2018-08-12 17:40,32.014,24.127,37.605,10.11,12.76
2018-08-12 18:00,31.977,24.072,37.687,9.93,12.90
2018-08-12 18:20,31.961,24.036,37.782,9.24,13.02
2018-08-12 18:40,31.940,23.984,37.924,8.75,13.21
2018-08-12 19:00,31.907,23.879,38.248,9.15,13.61
2018-08-12 19:20,31.884,23.821,38.399,9.10,13.80
2018-08-12 19:40,31.880,23.820,38.385,9.50,13.79
2018-08-12 20:00,31.891,23.842,38.337,8.98,13.73
2018-08-12 20:20,31.890,23.841,38.338,9.61,13.73
2018-08-12 20:40,31.888,23.841,38.331,9.06,13.72
2018-08-12 21:00,31.891,23.838,38.355,9.59,13.75
2018-08-12 21:20,31.893,23.841,38.349,9.57,13.74
2018-08-12 21:40,31.881,23.799,38.481,9.63,13.90
2018-08-12 22:00,31.886,23.815,38.433,9.16,13.84
2018-08-12 22:20,31.905,23.857,38.336,10.03,13.71
2018-08-12 22:40,31.889,23.831,38.382,10.20,13.78
2018-08-12 23:00,31.828,23.755,38.440,10.25,13.92
2018-08-12 23:20,31.926,23.868,38.380,10.35,13.73
2018-08-12 23:40,31.909,23.870,38.292,10.19,13.65
2018-08-13 00:00,31.885,23.806,38.471,9.95,13.88
2018-08-13 00:20,31.931,23.908,38.224,9.91,13.55
2018-08-13 00:40,31.872,23.879,38.087,9.52,13.47
2018-08-13 01:00,31.859,23.857,38.125,9.46,13.53
2018-08-13 01:20,31.891,23.889,38.126,9.23,13.49
2018-08-13 01:40,31.919,23.913,38.143,9.25,13.48
2018-08-13 02:00,31.899,23.919,38.031,9.08,13.37
2018-08-13 02:20,31.949,23.981,37.976,9.85,13.25
2018-08-13 02:40,31.914,23.979,37.822,9.13,13.12
2018-08-13 03:00,32.017,24.182,37.361,9.08,12.49
2018-08-13 03:20,31.914,23.958,37.921,9.72,13.23
2018-08-13 03:40,32.057,24.262,37.173,9.41,12.23
2018-08-13 04:00,32.030,24.215,37.267,9.33,12.37
2018-08-13 04:20,32.050,24.244,37.228,9.97,12.30
2018-08-13 04:40,32.066,24.259,37.232,10.27,12.28
2018-08-13 05:00,31.930,24.067,37.496,10.36,12.74
2018-08-13 05:20,31.965,24.091,37.550,10.36,12.76
2018-08-13 05:40,32.007,24.137,37.529,10.31,12.69
2018-08-13 06:00,31.970,24.065,37.688,10.07,12.91
2018-08-13 06:20,31.985,24.103,37.581,9.98,12.77
2018-08-13 06:40,31.964,24.051,37.728,9.16,12.96
2018-08-13 07:00,31.950,24.001,37.889,8.59,13.16
2018-08-13 07:20,31.905,23.889,38.195,8.85,13.55
2018-08-13 07:40,31.898,23.867,38.254,8.91,13.63
2018-08-13 08:00,31.937,23.945,38.081,8.53,13.39
2018-08-13 08:20,31.920,23.896,38.227,9.46,13.57
2018-08-13 08:40,31.909,23.908,38.124,8.91,13.47
2018-08-13 09:00,31.902,23.880,38.221,9.10,13.58
2018-08-13 09:20,31.911,23.905,38.146,9.02,13.49
2018-08-13 09:40,31.907,23.893,38.182,9.02,13.53
2018-08-13 10:00,31.904,23.882,38.219,9.05,13.58
2018-08-13 10:20,31.911,23.898,38.178,9.50,13.52
2018-08-13 10:40,31.891,23.841,38.341,9.11,13.73
2018-08-13 11:00,31.894,23.849,38.320,9.37,13.70
2018-08-13 11:20,31.889,23.843,38.322,10.07,13.71
2018-08-13 11:40,31.916,23.902,38.180,10.36,13.52
2018-08-13 12:00,31.921,23.910,38.171,10.33,13.51
2018-08-13 12:20,31.920,23.913,38.150,10.36,13.48
2018-08-13 12:40,31.920,23.911,38.162,10.28,13.50
2018-08-13 13:00,31.928,23.941,38.058,10.13,13.37
2018-08-13 13:20,31.897,23.915,38.036,9.36,13.38
2018-08-13 13:40,31.900,23.926,38.003,9.49,13.34
2018-08-13 14:00,31.916,23.954,37.950,9.09,13.26
2018-08-13 14:20,31.907,23.931,38.011,9.23,13.34
2018-08-13 14:40,31.899,23.923,38.011,9.10,13.35
2018-08-13 15:00,31.893,23.942,37.898,9.12,13.23
2018-08-13 15:20,31.908,23.958,37.894,9.52,13.21
2018-08-13 15:40,32.032,24.204,37.332,9.09,12.44
2018-08-13 16:00,31.964,24.069,37.644,9.73,12.86
2018-08-13 16:20,31.899,24.021,37.562,9.65,12.85
2018-08-13 16:40,32.038,24.220,37.282,9.56,12.37
2018-08-13 17:00,32.042,24.225,37.278,9.67,12.36
2018-08-13 17:20,31.968,24.066,37.672,10.18,12.89
2018-08-13 17:40,32.041,24.184,37.463,10.33,12.57
2018-08-13 18:00,32.002,24.140,37.491,10.33,12.65
2018-08-13 18:20,32.015,24.131,37.592,10.30,12.75
2018-08-13 18:40,31.947,23.992,37.914,10.06,13.19
2018-08-13 19:00,31.986,24.086,37.669,9.77,12.87
2018-08-13 19:20,31.982,24.060,37.767,8.99,12.98
2018-08-13 19:40,31.927,23.907,38.209,8.90,13.54
2018-08-13 20:00,31.916,23.872,38.315,9.27,13.67
2018-08-13 20:20,31.903,23.842,38.392,9.15,13.77
2018-08-13 20:40,31.905,23.843,38.395,9.04,13.77
2018-08-13 21:00,31.911,23.866,38.325,9.55,13.69
2018-08-13 21:20,31.918,23.884,38.272,9.30,13.62
2018-08-13 21:40,31.912,23.860,38.351,9.30,13.72
2018-08-13 22:00,31.911,23.861,38.346,9.23,13.71
2018-08-13 22:20,31.917,23.867,38.343,9.40,13.70
2018-08-13 22:40,31.936,23.906,38.256,9.53,13.58
2018-08-13 23:00,31.904,23.820,38.495,9.65,13.89
2018-08-13 23:20,31.923,23.872,38.350,10.14,13.70
2018-08-13 23:40,31.931,23.897,38.272,10.30,13.61
2018-08-14 00:00,31.747,23.681,38.403,10.31,13.97
2018-08-14 00:20,31.892,23.875,38.198,10.23,13.57
2018-08-14 00:40,31.949,23.896,38.356,10.30,13.68
2018-08-14 01:00,31.920,23.861,38.382,10.28,13.74
2018-08-14 01:20,31.935,23.889,38.327,10.02,13.66
2018-08-14 01:40,31.914,23.915,38.118,9.43,13.45
2018-08-14 02:00,31.878,23.885,38.088,9.24,13.46
2018-08-14 02:20,31.896,23.892,38.136,9.17,13.50
2018-08-14 02:40,31.931,23.916,38.186,9.43,13.51
2018-08-14 03:00,31.932,23.935,38.105,9.44,13.42
2018-08-14 03:20,31.941,23.932,38.166,9.69,13.47
2018-08-14 03:40,31.939,24.001,37.839,9.26,13.11
2018-08-14 04:00,32.016,24.153,37.491,9.21,12.63
2018-08-14 04:20,32.073,24.265,37.236,9.39,12.28
2018-08-14 04:40,32.059,24.241,37.282,9.14,12.35
2018-08-14 05:00,31.994,24.061,37.817,9.80,13.02
2018-08-14 05:20,31.987,24.068,37.753,10.05,12.96
2018-08-14 05:40,31.988,24.078,37.712,10.26,12.91
2018-08-14 06:00,32.085,24.236,37.428,10.30,12.48
2018-08-14 06:20,32.044,24.194,37.437,10.25,12.54
2018-08-14 06:40,32.021,24.120,37.674,10.23,12.83
2018-08-14 07:00,32.002,24.107,37.643,10.10,12.82
2018-08-14 07:20,31.997,24.081,37.736,9.69,12.93
2018-08-14 07:40,31.971,24.025,37.878,9.06,13.12
2018-08-14 08:00,31.963,23.982,38.040,8.96,13.31
2018-08-14 08:20,31.920,23.871,38.338,9.35,13.69
2018-08-14 08:40,31.915,23.859,38.371,9.13,13.73
2018-08-14 09:00,31.934,23.920,38.188,8.36,13.51
2018-08-14 09:20,31.924,23.878,38.323,9.00,13.67
2018-08-14 09:40,31.924,23.897,38.242,9.26,13.58
2018-08-14 10:00,31.921,23.895,38.238,8.55,13.58
2018-08-14 10:20,31.927,23.914,38.181,9.17,13.51
2018-08-14 10:40,31.933,23.919,38.182,8.95,13.50
2018-08-14 11:00,31.932,23.918,38.184,9.32,13.51
2018-08-14 11:20,31.925,23.899,38.237,9.01,13.57
2018-08-14 11:40,31.930,23.897,38.268,9.53,13.60
2018-08-14 12:00,31.959,23.964,38.100,10.18,13.38
2018-08-14 12:20,31.887,23.899,38.065,10.28,13.43
2018-08-14 12:40,31.980,24.035,37.876,10.28,13.10
2018-08-14 13:00,31.939,23.947,38.088,10.19,13.39
2018-08-14 13:20,31.929,23.899,38.254,10.16,13.59
2018-08-14 13:40,31.940,23.914,38.237,10.17,13.56
2018-08-14 14:00,31.912,23.912,38.121,9.53,13.46
2018-08-14 14:20,31.927,23.940,38.063,9.18,13.38
2018-08-14 14:40,31.901,23.911,38.074,9.20,13.42
2018-08-14 15:00,31.914,23.931,38.041,9.08,13.37
2018-08-14 15:20,31.951,23.956,38.102,9.20,13.39
2018-08-14 15:40,31.936,23.951,38.052,9.03,13.35
2018-08-14 16:00,31.918,23.957,37.943,9.07,13.25
2018-08-14 16:20,32.017,24.136,37.577,9.07,12.73
2018-08-14 16:40,31.957,23.982,38.008,9.23,13.28
2018-08-14 17:00,32.076,24.248,37.330,9.38,12.38
2018-08-14 17:20,32.088,24.268,37.291,9.25,12.32
2018-08-14 17:40,32.015,24.120,37.642,9.92,12.80
2018-08-14 18:00,31.956,23.976,38.030,10.12,13.31
2018-08-14 18:20,32.028,24.117,37.717,10.26,12.87
2018-08-14 18:40,32.008,24.072,37.832,10.29,13.02
2018-08-14 19:00,32.001,24.084,37.742,10.24,12.93
2018-08-14 19:20,31.993,24.066,37.791,10.02,13.00
2018-08-14 19:40,32.001,24.076,37.783,9.95,12.98
2018-08-14 20:00,31.998,24.068,37.800,9.18,13.00
2018-08-14 20:20,32.001,24.060,37.851,9.28,13.05
2018-08-14 20:40,31.953,23.942,38.172,9.18,13.47
2018-08-14 21:00,31.931,23.874,38.374,9.00,13.72
2018-08-14 21:20,31.922,23.853,38.429,9.11,13.79
2018-08-14 21:40,31.945,23.910,38.276,8.93,13.59
2018-08-14 22:00,31.932,23.885,38.329,9.58,13.67
2018-08-14 22:20,31.957,23.937,38.211,8.70,13.51
2018-08-14 22:40,31.930,23.873,38.372,9.45,13.72
2018-08-14 23:00,31.933,23.890,38.314,9.09,13.65
2018-08-14 23:20,31.930,23.870,38.391,9.39,13.74
2018-08-14 23:40,31.931,23.873,38.380,9.97,13.73
2018-08-15 00:00,31.913,23.860,38.356,10.12,13.72
2018-08-15 00:20,31.923,23.831,38.529,10.00,13.90
2018-08-15 00:40,31.979,23.911,38.428,10.02,13.72
2018-08-15 01:00,31.989,23.987,38.133,10.26,13.38
2018-08-15 01:20,31.954,23.920,38.279,10.24,13.58
2018-08-15 01:40,31.968,23.923,38.327,10.16,13.62
2018-08-15 02:00,31.941,23.880,38.394,10.15,13.73
2018-08-15 02:20,31.999,24.026,38.002,9.97,13.22
2018-08-15 02:40,31.976,23.985,38.081,9.51,13.34
2018-08-15 03:00,31.893,23.895,38.107,9.51,13.47
2018-08-15 03:20,31.961,23.970,38.084,9.60,13.36
2018-08-15 03:40,31.936,23.920,38.193,9.43,13.51
2018-08-15 04:00,31.977,23.990,38.060,9.62,13.31
2018-08-15 04:20,31.927,23.941,38.056,9.40,13.37
2018-08-15 04:40,31.965,24.032,37.816,9.02,13.06
2018-08-15 05:00,32.062,24.210,37.445,9.31,12.53
2018-08-15 05:20,32.098,24.282,37.274,9.26,12.29
2018-08-15 05:40,31.968,24.014,37.912,9.70,13.16
2018-08-15 06:00,32.185,24.257,37.797,9.99,12.77
2018-08-15 06:20,32.091,24.268,37.303,9.93,12.33
2018-08-15 06:40,32.097,24.274,37.306,10.18,12.33
2018-08-15 07:00,32.050,24.194,37.458,10.24,12.56
2018-08-15 07:20,32.066,24.217,37.429,10.20,12.51
2018-08-15 07:40,32.028,24.084,37.866,9.96,13.04
2018-08-15 08:00,32.003,24.082,37.765,9.92,12.95
2018-08-15 08:20,32.044,24.123,37.761,9.37,12.90
2018-08-15 08:40,32.012,24.076,37.833,9.18,13.02
2018-08-15 09:00,31.975,23.981,38.099,9.16,13.36
2018-08-15 09:20,31.949,23.922,38.245,9.06,13.55
2018-08-15 09:40,31.933,23.865,38.423,9.41,13.77
2018-08-15 10:00,31.931,23.860,38.437,9.01,13.79
2018-08-15 10:20,31.933,23.897,38.284,9.34,13.62
2018-08-15 10:40,31.940,23.908,38.262,8.82,13.58
2018-08-15 11:00,31.939,23.901,38.295,9.41,13.62
2018-08-15 11:20,31.949,23.915,38.272,9.04,13.58
2018-08-15 11:40,31.943,23.910,38.271,9.56,13.59
2018-08-15 12:00,31.942,23.903,38.294,9.55,13.62
2018-08-15 12:20,31.922,23.860,38.397,9.09,13.76
2018-08-15 12:40,31.958,23.927,38.262,10.09,13.56
2018-08-15 13:00,31.974,23.971,38.137,10.20,13.40
2018-08-15 13:20,32.014,23.974,38.303,10.24,13.54
2018-08-15 13:40,31.971,23.939,38.266,10.23,13.55
2018-08-15 14:00,32.008,24.048,37.942,10.05,13.15
2018-08-15 14:20,31.975,23.948,38.242,10.17,13.52
2018-08-15 14:40,31.911,23.870,38.304,9.89,13.67
2018-08-15 15:00,31.983,23.996,38.062,9.25,13.31
2018-08-15 15:20,31.981,23.988,38.091,9.14,13.34
2018-08-15 15:40,31.983,23.999,38.053,9.07,13.30
2018-08-15 16:00,31.960,23.946,38.186,9.79,13.47
2018-08-15 16:20,31.924,23.921,38.134,9.12,13.46
2018-08-15 16:40,31.922,23.937,38.054,8.98,13.37
2018-08-15 17:00,31.973,23.961,38.175,9.38,13.45
2018-08-15 17:20,32.027,24.130,37.654,9.18,12.80
2018-08-15 17:40,32.101,24.266,37.361,9.04,12.39
2018-08-15 18:00,31.957,23.943,38.183,9.35,13.47
2018-08-15 18:20,32.113,24.282,37.344,9.55,12.35
2018-08-15 18:40,32.062,24.206,37.464,9.69,12.55
2018-08-15 19:00,32.106,24.264,37.399,10.00,12.42
2018-08-15 19:20,32.108,24.221,37.604,10.19,12.65
2018-08-15 19:40,32.063,24.148,37.736,10.21,12.85
2018-08-15 20:00,32.082,24.166,37.740,10.15,12.83
2018-08-15 20:20,32.027,24.078,37.891,9.99,13.07
2018-08-15 20:40,32.022,24.066,37.921,9.89,13.11
2018-08-15 21:00,32.032,24.079,37.914,9.10,13.09
2018-08-15 21:20,31.992,23.987,38.149,8.96,13.40
2018-08-15 21:40,31.967,23.905,38.399,9.12,13.70
2018-08-15 22:00,31.953,23.873,38.480,9.00,13.81
2018-08-15 22:20,31.949,23.872,38.468,9.39,13.80
2018-08-15 22:40,31.965,23.911,38.365,8.89,13.67
2018-08-15 23:00,31.954,23.888,38.421,9.53,13.74
2018-08-15 23:20,31.962,23.900,38.401,8.54,13.71
2018-08-15 23:40,31.945,23.857,38.516,9.40,13.86
2018-08-16 00:00,31.942,23.840,38.577,8.44,13.93
2018-08-16 00:20,31.947,23.871,38.464,9.47,13.80
2018-08-16 00:40,31.937,23.825,38.617,9.70,13.98
2018-08-16 01:00,31.965,23.891,38.451,9.65,13.76
2018-08-16 01:20,31.951,23.875,38.462,10.11,13.79
2018-08-16 01:40,31.954,23.865,38.520,10.16,13.85
2018-08-16 02:00,31.928,23.849,38.471,10.25,13.83
2018-08-16 02:20,31.938,23.838,38.565,10.18,13.92
2018-08-16 02:40,31.961,23.888,38.447,10.23,13.76
2018-08-16 03:00,31.947,23.853,38.540,10.10,13.88
2018-08-16 03:20,31.973,23.923,38.345,9.97,13.64
2018-08-16 03:40,31.954,23.934,38.211,9.58,13.51
2018-08-16 04:00,31.948,23.940,38.157,9.33,13.46
2018-08-16 04:20,31.960,23.956,38.140,9.41,13.42
2018-08-16 04:40,31.941,23.935,38.147,9.27,13.45
2018-08-16 05:00,31.950,23.943,38.150,9.51,13.45
2018-08-16 05:20,31.950,23.970,38.030,9.42,13.31
2018-08-16 05:40,31.982,24.022,37.944,9.40,13.18
2018-08-16 06:00,32.009,24.070,37.850,9.66,13.04
2018-08-16 06:20,32.124,24.303,37.295,9.48,12.29
2018-08-16 06:40,32.136,24.326,37.241,9.65,12.21
2018-08-16 07:00,32.062,24.153,37.710,9.81,12.82
2018-08-16 07:20,32.024,24.050,38.005,10.18,13.20
2018-08-16 07:40,32.034,24.136,37.655,10.22,12.80
2018-08-16 08:00,32.056,24.169,37.607,10.25,12.72
2018-08-16 08:20,32.054,24.170,37.597,10.20,12.71
2018-08-16 08:40,32.015,24.068,37.882,10.02,13.07
2018-08-16 09:00,32.029,24.092,37.835,9.89,13.00
2018-08-16 09:20,31.999,24.025,38.008,9.08,13.23
2018-08-16 09:40,32.036,24.100,37.829,9.25,12.99
2018-08-16 10:00,31.970,23.933,38.286,8.75,13.57
2018-08-16 10:20,32.023,23.959,38.414,8.90,13.65
2018-08-16 10:40,31.937,23.840,38.555,8.91,13.91
2018-08-16 11:00,31.972,23.904,38.428,9.00,13.73
2018-08-16 11:20,31.946,23.876,38.435,9.42,13.77
2018-08-16 11:40,31.935,23.869,38.416,9.10,13.76
2018-08-16 12:00,31.938,23.869,38.429,8.30,13.77
2018-08-16 12:20,31.954,23.898,38.369,9.17,13.69
2018-08-16 12:40,31.935,23.859,38.460,9.66,13.81
2018-08-16 13:00,31.936,23.861,38.456,9.01,13.80
2018-08-16 13:20,31.944,23.876,38.425,9.16,13.76
2018-08-16 13:40,31.955,23.883,38.443,9.76,13.77
2018-08-16 14:00,31.945,23.875,38.437,10.24,13.77
2018-08-16 14:20,31.940,23.886,38.367,10.25,13.70
2018-08-16 14:40,31.959,23.908,38.352,10.25,13.66
2018-08-16 15:00,32.023,23.992,38.267,10.27,13.49
2018-08-16 15:20,31.981,23.920,38.395,10.13,13.68
2018-08-16 15:40,31.945,23.887,38.384,9.87,13.71
2018-08-16 16:00,31.945,23.932,38.181,9.05,13.49
2018-08-16 16:20,31.932,23.920,38.174,8.93,13.49
2018-08-16 16:40,31.955,23.943,38.174,9.18,13.47
2018-08-16 17:00,31.977,23.952,38.239,9.40,13.51
2018-08-16 17:20,31.962,23.967,38.100,9.43,13.38
2018-08-16 17:40,31.960,23.959,38.124,9.38,13.41
2018-08-16 18:00,31.989,23.968,38.217,9.53,13.47
2018-08-16 18:20,31.996,24.045,37.900,9.37,13.11
2018-08-16 18:40,31.989,23.965,38.233,9.83,13.49
2018-08-16 19:00,32.015,24.029,38.061,10.05,13.27
2018-08-16 19:20,32.141,24.319,37.301,9.83,12.27
2018-08-16 19:40,32.112,24.260,37.445,9.99,12.47
2018-08-16 20:00,32.079,24.180,37.664,10.26,12.75
2018-08-16 20:20,31.996,24.046,37.893,10.27,13.11
2018-08-16 20:40,32.070,24.138,37.816,10.27,12.93
2018-08-16 21:00,32.021,24.062,37.936,10.16,13.12
2018-08-16 21:20,32.032,24.079,37.911,9.90,13.08
2018-08-16 21:40,32.023,24.022,38.130,9.52,13.34
2018-08-16 22:00,32.006,23.979,38.245,9.18,13.49
2018-08-16 22:20,32.002,23.966,38.284,8.96,13.53
2018-08-16 23:00,31.949,23.835,38.632,9.19,13.98
2018-08-16 23:20,31.941,23.812,38.695,8.89,14.06
2018-08-16 23:40,31.948,23.845,38.582,9.31,13.93
2018-08-17 00:00,31.951,23.857,38.543,9.49,13.88
2018-08-17 00:20,31.970,23.889,38.485,8.70,13.79
2018-08-17 00:40,31.940,23.818,38.662,9.23,14.03
2018-08-17 01:00,31.955,23.858,38.555,8.82,13.89
2018-08-17 01:20,31.948,23.846,38.579,9.54,13.93
2018-08-17 01:40,31.941,23.814,38.688,9.56,14.06
2018-08-17 02:00,31.952,23.848,38.585,9.48,13.93
2018-08-17 02:20,31.964,23.880,38.500,10.10,13.82
2018-08-17 02:40,31.958,23.866,38.532,10.32,13.86
2018-08-17 03:00,31.944,23.819,38.679,10.27,14.04
2018-08-17 03:20,31.897,23.793,38.582,10.32,13.99
2018-08-17 03:40,31.975,23.875,38.569,10.28,13.88
2018-08-17 04:00,31.965,23.871,38.545,10.18,13.87
2018-08-17 04:20,31.979,23.936,38.320,10.12,13.60
2018-08-17 04:40,31.950,23.917,38.268,9.57,13.58
2018-08-17 05:00,31.947,23.911,38.284,9.31,13.60
2018-08-17 05:20,31.948,23.921,38.244,9.23,13.55
2018-08-17 05:40,31.970,23.952,38.202,9.37,13.48
2018-08-17 06:00,31.953,23.935,38.202,9.71,13.50
2018-08-17 06:20,31.942,23.931,38.169,9.45,13.48
2018-08-17 06:40,31.980,23.964,38.193,9.70,13.46
2018-08-17 07:00,32.051,24.140,37.722,9.60,12.85
2018-08-17 07:20,32.037,24.129,37.704,9.80,12.85
2018-08-17 07:40,32.000,23.985,38.194,10.08,13.43
2018-08-17 08:00,31.983,23.960,38.228,10.05,13.49
2018-08-17 08:20,32.051,24.107,37.871,10.21,13.02
2018-08-17 08:40,32.047,24.110,37.835,10.30,12.98
2018-08-17 09:00,32.027,24.066,37.947,10.30,13.13
2018-08-17 09:20,32.089,24.186,37.682,10.17,12.76
2018-08-17 09:40,32.019,24.044,38.013,10.06,13.21
2018-08-17 10:00,32.036,24.088,37.887,10.09,13.05
2018-08-17 10:20,32.020,24.039,38.040,9.35,13.24
2018-08-17 10:40,32.008,24.014,38.096,9.55,13.32
2018-08-17 11:00,31.976,23.897,38.480,9.08,13.78
2018-08-17 11:20,31.967,23.882,38.503,9.38,13.82
2018-08-17 11:40,31.952,23.851,38.569,9.30,13.91
2018-08-17 12:00,31.950,23.845,38.589,9.30,13.94
2018-08-17 12:20,31.943,23.847,38.553,9.62,13.90
2018-08-17 12:40,31.948,23.863,38.502,9.07,13.84
2018-08-17 13:00,31.944,23.848,38.549,9.65,13.90